EHI
0 0 0 0 0 0 0 0 0 0 0 0 0 0 0 0 0 0 0 0 0 0 0 0 0 0 0 0 0 0 0 0 0 0 0 0 0 0
0 0 0 0 0 0 0 0 0 0 0 0 0 0 0 0 0 0 0 0 0 0 0 0 0 0 0 0 0 0 0 0 0 0 0 0 0 0
0 0 0 0 0 0 0 0 0 0 0 0 0 0 0 0 0 0 0 0 0 0 0 0 0 0 0 0 0 0 0 0 0 0 0 0 0 0
0 0 0 0 0 0 0 0 0 0 0 0 0 0 0 0 0 0 0 0 0 0 0 0 0 0 0 0 0 0 0 0 0 0 0 0 0 0
0 0 0 0 0 0 0 0 0 0 0 0 0 0 0 0 0 0 0 0 0 0 0 0 0 0 0 0 0 0 0 0 0 0 0 0 0 0
0 0 0 0 0 0 0 0 0 0 0 0 0 0 0 0 0 0 0 0 0 0 0 0 0 0 0 0 0 0 0 0 0 0 0 0 0 0
0 0 0 0 0 0 0 0 0 0 0 0 0 0 0 0 0 0 0 0 0 0 0 0 0 0 0 0 0 0 0 0 0 0 0 0 0 0
0 0 0 0 0 0 0 0 0 0 0 0 0 0 0 0 0 0 0 0 0 0 0 0 0 0 0 0 0 0 0 0 0 0 0 0 0 0
0 0 0 0 0 0 0 0 0 0 0 0 0 0 0 0 0 0 0 0 0 0 0 0 0 0 0 0 0 0 0 0 0 0 0 0 0 0
0 0 0 0 0 0 0 0 0 0 0 0 0 0 0 0 0 0 0 0 0 0 0 0 0 0 0 0 0 0 0 0 0 0 0 0 0 0
0 0 0 0 0 0 0 0 0 0 0 0 0 0 0 0 0 0 0 0 0 0 0 0 0 0 0 0 0 0 0 0 0 0 0 0 0 0
0 0 0 0 0 0 0 0 0 0 0 0 0 0 0 0 0 0 0 0 0 0 0 0 0 0 0 0 0 0 0 0 0 0 0 0 0 0
0 0 0 0 0 0 0 0 0 0 0 0 0 0 0 0 0 0 0 0 0 0 0 0 0 0 0 0 0 0 0 0 0 0 0 0 0 0
0 0 0 0 0 0 0 0 0 0 0 0 0 0 0 0 0 0 0 0 0 0 0 0 0 0 0 0 0 0 0 0 0 0 0 0 0 0
0 0 0 0 0 0 0 0 0 0 0 0 0 0 0 0 0 0 0 0 0 0 0 0 0 0 0 0 0 0 0 0 0 0 0 0 0 0
0 0 0 0 0 0 0 0 0 0 0 0 0 0 0 0 0 0 0 0 0 0 0 0 0 0 0 0 0 0 0 0 0 0 0 0 0 0
0 0 0 0 0 0 0 0 0 0 0 0 0 0 0 0 0 0 0 0 0 0 0 0 0 0 0 0 0 0 0 0 0 0 0 0 0 0
0 0 0 0 0 0 0 0 0 0 0 0 0 0 0 0 0 0 0 0 0 0 0 0 0 0 0 0 0 0 0 0 0 0 0 0 0 0
0 0 0 0 0 0 0 0 0 0 0 0 0 0 0 0 0 0 0 0 0 0 0 0 0 0 0 0 0 0 0 0 0 0 0 0 0 0
0 0 0 0 0 0 0 0 0 0 0 0 0 0 0 0 0 0 0 0 0 0 0 0 0 0 0 0 0 0 0 0 0 0 0 0 0 0
0 0 0 0 0 0 0 0 0 0 0 0 0 0 0 0 0 0 0 0 0 0 0 0 0 0 0 0 0 0 0 0 0 0 0 0 0 0
0 0 0 0 0 0 0 0 0 0 0 0 0 0 0 0 0 0 0 0 0 0 0 0 0 0 0 0 0 0 0 0 0 0 0 0 0 0
0 0 0 0 0 0 0 0 0 0 0 0 0 0 0 0 0 0 0 0 0 0 0 0 0 0 0 0 0 0 0 0 0 0 0 0 0 0
Wind_Speed
3 3 2 2 2 2 2 2 2 4 5 3 2 3 3 3 5 4 4 7 9 8 9 9 9 10 10 10 11 12 12 13 12 13 14 15 14 14
2 3 3 2 2 2 2 2 2 2 4 3 3 3 4 4 6 4 4 8 9 9 9 9 9 9 9 9 10 10 11 12 12 13 14 14 13 14
2 2 3 2 2 2 1 1 1 1 3 4 3 3 4 4 4 4 3 4 4 8 9 9 9 8 9 9 10 10 11 12 12 13 13 13 13 13
2 2 2 2 2 2 1 1 1 1 2 4 4 3 4 4 4 4 4 4 4 8 9 9 10 9 9 10 10 10 10 11 12 12 11 11 12 12
2 2 2 1 2 1 1 1 1 1 1 2 3 3 3 3 4 4 4 3 5 7 8 9 10 11 11 12 11 10 10 11 11 11 11 11 11 11
1 1 2 2 2 1 1 1 1 0 1 1 2 3 3 3 3 4 4 4 4 5 7 8 10 11 12 13 12 11 11 11 12 11 11 11 10 10
1 1 1 1 2 1 1 1 0 0 1 1 2 2 3 3 3 3 4 4 4 4 4 5 6 5 6 10 11 12 12 11 12 12 12 11 10 10
1 1 1 1 2 2 2 2 1 1 1 1 2 2 3 3 3 3 3 4 4 4 4 5 4 5 5 5 11 13 13 13 12 12 12 11 10 9
1 1 2 2 2 1 2 3 3 4 3 1 1 2 3 3 2 3 3 3 3 4 4 4 4 4 5 7 13 14 14 14 13 13 13 12 11 10
0 0 0 1 1 2 2 2 3 4 4 2 1 2 2 2 2 2 2 2 2 3 3 3 4 4 5 5 11 13 14 14 14 14 13 13 12 11
1 1 1 1 2 3 3 3 3 4 6 7 6 6 6 6 5 3 3 3 3 3 3 2 3 5 4 4 7 12 14 14 14 14 13 13 12 10
1 1 2 2 3 3 2 2 2 2 3 4 6 7 6 6 8 4 2 2 2 3 3 3 3 4 4 3 4 5 7 11 14 13 14 13 13 7
1 1 1 3 3 4 4 3 3 2 2 3 3 4 4 4 4 4 3 1 1 2 3 3 3 3 3 5 5 4 4 5 6 7 10 13 13 9
1 1 1 3 4 6 5 5 5 5 3 3 3 3 3 3 3 3 3 3 2 2 3 3 2 3 3 4 5 5 4 4 4 5 5 10 10 11
2 4 4 5 5 5 6 7 5 3 2 2 2 2 2 2 2 3 3 3 3 3 3 3 2 2 2 3 4 4 5 4 4 5 5 5 5 5
3 4 5 7 6 6 5 4 3 2 2 1 1 2 2 2 2 2 2 3 3 4 4 3 3 2 2 3 3 4 3 4 5 6 5 5 4 4
3 3 3 3 4 3 3 3 3 3 3 2 2 2 2 2 2 3 2 2 2 3 4 4 3 2 2 2 3 3 3 4 4 5 5 5 4 4
5 3 3 2 2 2 2 2 2 2 2 2 2 1 2 2 2 2 2 2 2 3 4 4 5 4 3 2 2 3 3 3 4 5 4 4 6 5
4 3 2 2 1 1 1 1 1 2 1 1 1 1 1 2 2 2 2 2 2 3 3 3 4 4 4 5 5 3 3 4 5 4 3 3 5 6
3 2 1 1 1 1 1 1 1 1 1 1 1 1 1 1 1 2 2 2 3 3 3 3 3 3 2 3 4 5 5 4 4 5 5 4 4 6
2 1 1 1 1 1 1 1 1 1 1 1 1 1 1 1 1 2 2 3 3 2 3 4 4 6 3 2 3 4 4 5 5 4 4 5 5 4
1 1 1 1 1 1 1 1 1 1 1 1 1 1 1 1 1 2 2 2 2 2 3 4 4 3 2 2 3 5 6 6 7 8 6 4 2 3
1 1 1 1 1 1 1 1 1 1 1 1 1 1 1 1 1 1 1 2 2 2 3 3 3 2 2 2 3 4 5 6 5 5 4 7 7 7
Wind_Direction
246 245 248 250 246 249 244 234 242 294 307 313 323 324 326 321 323 331 320 321 324 328 327 321 316 317 310 304 300 299 301 299 294 293 290 288 288 286
249 249 253 258 254 252 244 247 232 237 282 306 308 314 319 325 330 334 324 331 332 329 328 329 331 325 323 317 310 310 310 308 302 295 291 288 289 289
274 257 260 259 251 259 254 251 247 224 267 301 313 321 326 326 326 330 326 325 328 333 334 333 333 335 339 331 324 318 314 314 312 306 300 292 290 288
270 271 270 271 261 259 247 252 255 243 241 286 308 319 321 318 321 330 333 335 337 335 338 340 343 344 345 339 329 323 321 320 318 316 310 304 297 292
259 260 266 256 265 273 264 262 263 280 261 258 296 312 314 325 330 331 335 339 341 341 343 348 349 347 346 345 340 333 330 328 327 322 316 310 304 297
271 255 251 239 242 248 254 258 259 289 296 279 304 314 321 324 330 332 335 344 341 343 350 353 354 353 349 346 349 350 345 338 334 331 329 325 320 311
326 300 281 292 299 300 302 279 244 258 281 287 303 318 323 329 328 324 322 326 336 344 338 348 348 348 347 345 350 352 351 345 341 338 335 331 329 325
329 333 331 331 341 344 355 0 6 332 286 295 301 307 309 313 318 324 325 337 337 345 346 336 345 341 341 345 354 357 356 355 351 347 344 341 337 332
324 343 347 352 358 15 25 22 12 1 346 305 301 306 306 308 317 329 332 333 318 326 334 321 336 335 336 345 353 357 358 358 356 353 352 353 354 352
318 330 7 6 13 52 66 39 18 13 5 7 353 325 328 332 323 311 313 324 314 330 342 323 329 328 331 335 347 353 356 359 359 359 359 358 354 351
0 41 47 53 34 56 71 59 35 21 22 31 30 29 25 18 12 14 2 359 334 329 351 340 325 322 320 328 340 349 353 356 359 360 359 359 356 353
27 23 26 37 49 54 74 83 60 15 23 25 26 23 23 18 15 16 357 346 328 322 340 342 323 331 326 321 331 340 344 349 354 356 356 355 354 351
40 14 19 41 57 53 54 74 79 60 49 41 31 25 20 16 11 10 2 346 329 302 315 330 320 329 319 312 318 329 344 342 345 348 350 353 355 355
70 41 42 52 57 57 59 63 62 57 58 51 42 26 15 7 360 359 359 357 345 307 309 318 313 324 324 318 316 324 332 337 341 342 341 346 351 353
76 67 63 61 60 62 58 57 53 55 57 50 32 10 355 346 348 350 354 355 357 353 350 348 338 327 320 308 311 319 323 328 340 342 340 338 333 335
69 69 64 62 60 55 51 43 37 45 51 50 21 357 356 360 4 358 356 351 359 352 349 352 342 332 316 301 298 306 314 315 329 332 326 323 324 326
85 74 61 51 47 41 38 33 27 28 29 22 24 13 5 4 359 357 2 4 6 343 336 336 331 313 284 295 308 311 315 314 316 324 329 330 328 331
86 82 69 59 49 41 33 22 21 23 17 14 15 9 359 354 352 355 3 7 355 339 331 328 335 338 339 326 287 303 316 312 318 324 323 329 328 332
75 76 76 66 44 31 25 26 15 3 6 12 6 354 347 344 345 348 353 354 346 336 330 333 343 349 352 341 325 321 311 316 322 323 325 319 310 312
49 57 53 52 38 17 9 9 11 7 5 355 345 338 335 335 334 335 343 344 338 336 337 339 341 340 325 308 306 311 316 306 314 317 316 310 294 297
32 27 25 19 13 356 349 355 5 358 344 332 324 325 326 331 331 330 333 339 342 337 331 324 310 318 305 309 313 313 315 321 315 304 310 321 326 334
16 359 355 352 342 333 339 348 350 336 326 318 313 316 316 315 315 322 327 327 326 318 312 312 320 334 348 334 318 314 321 327 330 328 320 302 305 324
346 339 337 333 328 322 315 298 290 291 290 290 295 301 301 304 301 302 308 310 315 319 322 324 330 337 329 314 316 318 323 327 333 342 337 331 323 301